Location: Laan Hart van Zuid
(52.2563°N, 6.7904°E)
Time: 19:15:56
(UTC+02:00)

Envisat - Visible Passes

Search period start: 22 April 2024 00:00
Search period end: 02 May 2024 00:00
Orbit: 762 x 764 km, 98.3° (Epoch: 22 April)

Date Brightness Start Highest point End Pass type
(mag) Time Alt. Az. Time Alt. Az. Time Alt. Az.
22 Apr 3.7 04:41:54 10° NNE 04:46:52 52° E 04:51:49 10° S visible
23 Apr 4.8 04:04:58 10° NE 04:09:16 27° E 04:13:32 10° SSE visible
24 Apr 5.5 03:28:54 10° NE 03:31:27 14° E 03:34:00 10° ESE visible
24 Apr 3.1 05:06:09 10° NNE 05:11:16 81° ESE 05:16:21 10° SSW visible
25 Apr 4.1 04:28:58 10° NNE 04:33:48 41° E 04:38:34 10° SSE visible
26 Apr 5.2 03:52:14 10° NE 03:56:07 21° E 03:59:57 10° SE visible
26 Apr 3.1 05:30:31 10° N 05:35:34 67° WNW 05:40:35 10° SSW visible
27 Apr 5.8 03:17:10 10° ENE 03:18:13 11° E 03:19:15 10° E visible
27 Apr 3.4 04:53:08 10° NNE 04:58:13 65° ESE 05:03:15 10° S visible
28 Apr 4.5 04:16:05 10° NNE 04:20:40 33° E 04:25:13 10° SSE visible
29 Apr 5.4 03:39:37 10° NE 03:42:55 17° E 03:46:12 10° SE visible
29 Apr 3.0 05:17:26 10° NNE 05:22:33 83° WNW 05:27:37 10° SSW visible
30 Apr 3.8 04:40:10 10° NNE 04:45:08 51° E 04:50:04 10° S visible
01 May 4.9 04:03:15 10° NE 04:07:31 26° E 04:11:45 10° SSE visible
